Regional Weather Roundup
Issued by NWS

Home | Current Version | Previous Version | Text Only | Print | Product List | Glossary Off
Versions: 1 2 3 4 5 6 7 8 9 10 11 12 13 14 15 16 17 18 19 20 21 22 23 24 25 26 27 28 29 30 31 32 33 34 35 36 37 38 39 40 41 42 43 44 45 46 47 48 49 50

000
ASUS45 KBOU 311910
RWRCO

WEATHER ROUNDUP FOR COLORADO
NATIONAL WEATHER SERVICE PUEBLO CO
100 PM MDT FRI JUL 31 2015

NOTE: "FAIR" INDICATES FEW OR NO CLOUDS BELOW 12000 FEET WITH NO
SIGNIFICANT WEATHER AND/OR OBSTRUCTIONS TO VISIBILITY.

COZ001>005-013-030-031-312000-
...NORTHWEST COLORADO...

CITY           SKY/WX    TMP DP  RH WIND       PRES   REMARKS
CRAIG          SUNNY     89  29  11 N9        30.33F
HAYDEN         SUNNY     84  32  15 N8        30.35F
MEEKER         SUNNY     86  33  15 VRB3      30.34F
MOUNT WERNER   NOT AVBL
STEAMBOAT SPGS FAIR      82  33  17 SW6       30.37F
WALDEN         FAIR      77  27  15 E3        30.48S
$$

COZ006>008-011-312000-
...WEST CENTRAL VALLEYS...

CITY           SKY/WX    TMP DP  RH WIND       PRES   REMARKS
GRAND JUNCTION SUNNY     88  42  20 W9        30.24F
MONTROSE       MOSUNNY   84  42  22 NW5       30.31F
EAGLE          MOSUNNY   84  28  13 CALM      30.35F
RIFLE          SUNNY     88  35  15 VRB6      30.27F
DELTA          NOT AVBL
NUCLA          FAIR      79  46  31 CALM      30.39F
$$

COZ017>023-064>068-312000-
...SOUTHWEST COLORADO...

CITY           SKY/WX    TMP DP  RH WIND       PRES   REMARKS
DURANGO        CLOUDY    73  55  53 SW5       30.41F
CORTEZ         PTSUNNY   77  57  50 VRB5      30.35F
PAGOSA SPRINGS CLOUDY    71  52  50 SE5       30.48F
TELLURIDE      PTSUNNY   69  44  40 W8        30.58F
WOLF CREEK PAS NOT AVBL
$$

COZ009-010-012-014-032>034-037-058>063-312000-
...CENTRAL COLORADO...

CITY           SKY/WX    TMP DP  RH WIND       PRES   REMARKS
ASPEN          PTSUNNY   75  48  38 S7        30.44F
BUENA VISTA    FAIR      75  38  26 SE7G17    30.47F
COPPER MTN     CLOUDY    61  32  33 W9        30.80F
BERTHOUD PASS  CLOUDY    46  36  66 E16G26    30.85F
COTTONWOOD PAS PTSUNNY   72  34  25 SE12G20   30.62F
GUNNISON       MOSUNNY   79  43  27 W6        30.45F
KREMMLING      MOSUNNY   82  21  10 NW3       30.42F
LEADVILLE      PTSUNNY   66  33  29 W5        30.60F
MONARCH PASS   PTSUNNY   55  36  47 E15       30.88F
SALIDA         FAIR      82  29  14 E7G17     30.51F
NIWOT RIDGE    NOT AVBL
SUNLIGHT       MOSUNNY   68  41  37 NW6       30.72F
WILKERSON PASS CLOUDY    61  36  39 SE3       30.77F
$$

COZ069>075-312000-
...SAN LUIS VALLEY/SANGRE DE CRISTO MOUNTAINS...

CITY           SKY/WX    TMP DP  RH WIND       PRES   REMARKS
ALAMOSA        CLOUDY    77  49  37 VRB6      30.45F
LA VETA PASS   PTSUNNY   61  45  55 MISG      30.67S
SAGUACHE       MOSUNNY   73  52  46 S9        30.48F
$$

COZ035-036-038>040-312000-
...NORTHERN COLORADO FRONT RANGE...

CITY           SKY/WX    TMP DP  RH WIND       PRES   REMARKS
DENVER INTL AP MOSUNNY   89  43  20 SE16      30.30F
DMNS CITY PARK NOT AVBL
AURORA         MOSUNNY   84  47  27 E8        30.32F
FRONT RANGE AP MOSUNNY   86  46  25 SE15G21   30.32F
ERIE MUNI ARPT FAIR      84  48  28 S3        30.28F
BOULDER MUN AP FAIR      86  52  30 CALM      30.30F
CENTENNIAL     MOSUNNY   86  43  22 SE10G20   30.33F
BROOMFIELD     PTSUNNY   86  48  26 SE9       30.33F
LOVELAND       MOSUNNY   82  55  39 S9        30.28F
LONGMONT       FAIR      89  51  27 SE9       30.30F
$$

COZ041-046-047-076>085-087-088-312000-
...PIKES PEAK/PALMER DIVIDE AND SOUTHERN FOOTHILLS...

CITY           SKY/WX    TMP DP  RH WIND       PRES   REMARKS
COLO. SPRINGS  PTSUNNY   80  51  36 E8        30.39F
A. F. ACADEMY  MOSUNNY   80  49  33 S9        30.40F
ELLICOTT       FAIR     N/A N/A N/A SE8       30.38F
FALCON         FAIR      77  52  41 E3        30.44F
FORT CARSON    MOSUNNY   80  53  39 SE3       30.36F
LIMON          MOSUNNY   82  55  39 SE12G17   30.34F
MONUMENT HILL  SUNNY     75  46  35 S13       30.44F
TRINIDAD       MOSUNNY   84  55  36 MISG      30.33F
$$

COZ042>045-048>051-090-091-312000-
...NORTHEAST COLORADO...

CITY           SKY/WX    TMP DP  RH WIND       PRES   REMARKS
GREELEY ARPT   SUNNY     91  48  22 SE13      30.27F
AKRON          SUNNY     88  49  25 SE13G20   30.28F
BURLINGTON     MOSUNNY   84  61  45 S8        30.28F
WRAY           FAIR      91  53  26 E5        30.23F
STERLING       FAIR      90  48  24 SE6       30.21F
HOLYOKE        NOT AVBL
FORT MORGAN    FAIR      88  49  25 SE9       30.27F
$$

COZ086-089-092>099-312000-
...SOUTHEAST COLORADO...

CITY           SKY/WX    TMP DP  RH WIND       PRES   REMARKS
PUEBLO         MOSUNNY   87  57  35 CALM      30.27F
LA JUNTA       MOSUNNY   85  58  39 VRB6      30.25F
LAMAR          SUNNY     87  61  41 SE13G20   30.22F
SPRINGFIELD      N/A     77  64  64 S16       30.28F
$$



USA.gov is the U.S. government's official web portal to all federal, state and local government web resources and services.